Flag Weather past 2 weeks in Kaunas, Lithuania

Now
32 °F

Fog.


Feels Like: 32 °F
Forecast: 29 / 35 °F
Wind: 1 mph from East

Location: Kaunas

Current Time: Nov 23, 2014 at 3:03:46 AM

Latest Report: Nov 23, 2014 at 2:20 AM


Visibility: 0 mi

Pressure: 30.39 "Hg

Humidity: 93%

Dew point: 30 °F

Location of KaunasLocation

Historic Weather in Kaunas — Graph

°F

Kaunas temperature yesterday

Maximum temperature yesterday: 34 °F (at 10:20 AM)
Minimum temperature yesterday: 32 °F (at 12:20 AM)
Average temperature yesterday: 33 °F

Past Weeks' High & Low Weather Summary

 TemperatureHumidityPressure
High50 °F (Nov 9, 1:20 PM)100% (Nov 9, 4:20 AM)30.39 "Hg (Nov 9, 4:20 AM)
Low30 °F (Nov 19, 1:20 AM)44% (Nov 18, 1:20 PM)29.86 "Hg (Nov 8, 1:20 AM)
Average39 °F80%30.19 "Hg
* Reported Nov 8 1:20 AM — Nov 23 1:20 AM, Kaunas, Weather by CustomWeather, © 2014

Note: Actual official high and low records may vary slightly from our data, if they occured in-between our weather recording intervals... More about our weather records

Advertising

Kaunas weather history for previous 24 hours

 ConditionsComfort  
Time TempWeatherWind HumidityBarometerVisibility
1:20 AM
Nov 23
34 °FFog.No wind93%30.39 "Hg0 mi
12:50 AM34 °FFog.No wind93%30.39 "Hg0 mi
12:20 AM34 °FFog.No wind93%30.39 "Hg0 mi
11:50 PM
Nov 22
34 °FFog.No wind93%30.36 "Hg1 mi
11:20 PM34 °FFog.No wind93%30.36 "Hg1 mi
10:50 PM34 °FFog.No wind93%30.36 "Hg1 mi
10:20 PM34 °FDrizzle. Fog.No wind93%30.36 "Hg1 mi
9:50 PM34 °FDrizzle. Fog.No wind93%30.36 "Hg1 mi
9:20 PM34 °FRain. Fog.3 mph93%30.36 "Hg1 mi
8:50 PM34 °FDrizzle. Fog.2 mph93%30.33 "Hg1 mi
8:20 PM34 °FDrizzle. Fog.1 mph93%30.33 "Hg1 mi
7:50 PM34 °FDrizzle. Fog.2 mph93%30.33 "Hg1 mi
7:20 PM34 °FDrizzle. Dense fog.No wind93%30.33 "Hg1 mi
6:50 PM34 °FDrizzle. Dense fog.No wind93%30.33 "Hg1 mi
6:20 PM34 °FDrizzle. Fog.No wind93%30.33 "Hg1 mi
5:50 PM34 °FFog.2 mph93%30.33 "Hg1 mi
5:20 PM34 °FFog.2 mph93%30.33 "Hg1 mi
4:50 PM34 °FFog.3 mph93%30.33 "Hg1 mi
4:20 PM34 °FFog.2 mph93%30.33 "Hg1 mi
3:50 PM34 °FFog.2 mph93%30.33 "Hg1 mi
3:20 PM34 °FFog.2 mph93%30.33 "Hg1 mi
2:50 PM34 °FFog.2 mph93%30.33 "Hg1 mi
2:20 PM34 °FDrizzle. Fog.2 mph93%30.33 "Hg2 mi
1:50 PM34 °FFog.3 mph93%30.33 "Hg2 mi
1:20 PM34 °FFog.3 mph93%30.33 "Hg2 mi
12:50 PM34 °FFog.3 mph87%30.33 "Hg3 mi
12:20 PM34 °FFog.3 mph87%30.33 "Hg3 mi
11:50 AM34 °FFog.1 mph87%30.33 "Hg2 mi
11:20 AM34 °FFog.3 mph87%30.33 "Hg3 mi
10:50 AM34 °FFog.2 mph87%30.33 "Hg2 mi
10:20 AM34 °FFog.3 mph87%30.30 "Hg2 mi
9:50 AM32 °FIce fog.3 mph93%30.30 "Hg2 mi
9:20 AM32 °FIce fog.2 mph93%30.30 "Hg2 mi
8:50 AM32 °FIce fog.2 mph93%30.30 "Hg2 mi
8:20 AM32 °FIce fog.1 mph93%30.30 "Hg3 mi
7:50 AM32 °FIce fog.2 mph93%30.30 "Hg3 mi
7:20 AM32 °FIce fog.1 mph93%30.30 "Hg3 mi
6:50 AM32 °FIce fog.2 mph93%30.30 "Hg3 mi
6:20 AM32 °FIce fog.2 mph93%30.30 "Hg3 mi
5:50 AM32 °FIce fog.No wind93%30.30 "Hg2 mi
5:20 AM32 °FIce fog.No wind93%30.30 "Hg3 mi
4:50 AM32 °FIce fog.No wind93%30.30 "Hg3 mi
4:20 AM32 °FIce fog.No wind93%30.30 "Hg3 mi
3:50 AM32 °FIce fog.No wind93%30.30 "Hg3 mi
3:20 AM32 °FLight rain. Low clouds.No wind93%30.30 "Hg2 mi
Weather by CustomWeather, © 2014

See weather overviewHow to use our weather pages